BAW968 EGLL-EDDH

Flight info

Callsign BAW968
Flight time 1h 22m
Altitude 35000
Route BPK Q295 SOMVA DCT MAVAS DCT PABCO M105 RIBSO RIBSO7A
Aircraft A320/M-SDE3FGHIRWY/LB1

Departure

Time 2026-05-06 15:21
Airport London Heathrow Airport (EGLL)

Arrival

Time 2026-05-06 16:44
Airport Hamburg Helmut Schmidt Airport (EDDH)
Time Latitude Longitude Altitude Speed Heading
2026-05-06 14:53 51.47232 -0.48589 87 ft 0 kts 270°
2026-05-06 15:10 51.47232 -0.48588 87 ft 1 kts 270°
2026-05-06 15:10 51.47233 -0.48548 89 ft 4 kts 262°
2026-05-06 15:10 51.47239 -0.48507 89 ft 4 kts 243°
2026-05-06 15:10 51.47254 -0.48478 90 ft 4 kts 192°
2026-05-06 15:11 51.47264 -0.48476 88 ft 1 kts 179°
2026-05-06 15:11 51.47265 -0.48476 88 ft 0 kts 179°
2026-05-06 15:15 51.47263 -0.48476 88 ft 1 kts 179°
2026-05-06 15:15 51.47235 -0.48476 90 ft 6 kts 179°
2026-05-06 15:15 51.47207 -0.48473 87 ft 4 kts 180°
2026-05-06 15:15 51.47188 -0.48474 87 ft 1 kts 181°
2026-05-06 15:17 51.47185 -0.48475 87 ft 2 kts 181°
2026-05-06 15:17 51.47152 -0.48475 87 ft 7 kts 180°
2026-05-06 15:17 51.47083 -0.48474 87 ft 12 kts 180°
2026-05-06 15:17 51.46980 -0.48473 87 ft 17 kts 180°
2026-05-06 15:18 51.46860 -0.48472 87 ft 14 kts 180°
2026-05-06 15:18 51.46821 -0.48472 89 ft 0 kts 180°
2026-05-06 15:18 51.46815 -0.48472 89 ft 2 kts 180°
2026-05-06 15:19 51.46788 -0.48471 87 ft 5 kts 180°
2026-05-06 15:19 51.46743 -0.48471 89 ft 8 kts 180°
2026-05-06 15:19 51.46679 -0.48470 87 ft 10 kts 179°
2026-05-06 15:19 51.46600 -0.48470 88 ft 12 kts 180°
2026-05-06 15:20 51.46513 -0.48469 89 ft 12 kts 180°
2026-05-06 15:20 51.46479 -0.48404 89 ft 8 kts 90°
2026-05-06 15:20 51.46479 -0.48401 89 ft 0 kts 90°
2026-05-06 15:20 51.46479 -0.48269 89 ft 38 kts 90°
2026-05-06 15:21 51.46482 -0.47489 86 ft 99 kts 88°
2026-05-06 15:21 51.46487 -0.46122 88 ft 146 kts 91°
2026-05-06 15:21 51.46476 -0.44319 284 ft 165 kts 88°
2026-05-06 15:21 51.46470 -0.42498 983 ft 162 kts 82°
2026-05-06 15:22 51.46813 -0.40796 1537 ft 163 kts 51°
2026-05-06 15:22 51.47581 -0.39391 2006 ft 175 kts 46°
2026-05-06 15:22 51.48404 -0.37869 2410 ft 192 kts 47°
2026-05-06 15:22 51.49308 -0.36151 2824 ft 210 kts 47°
2026-05-06 15:23 51.50288 -0.34277 3319 ft 228 kts 47°
2026-05-06 15:23 51.51344 -0.32253 3860 ft 245 kts 47°
2026-05-06 15:23 51.52325 -0.29938 4524 ft 257 kts 66°
2026-05-06 15:23 51.52923 -0.27194 5368 ft 263 kts 70°
2026-05-06 15:24 51.53512 -0.24386 6238 ft 266 kts 70°
2026-05-06 15:24 51.54106 -0.21591 7007 ft 270 kts 66°
2026-05-06 15:24 51.55184 -0.19172 7778 ft 268 kts 34°
2026-05-06 15:24 51.56894 -0.18021 8491 ft 270 kts
2026-05-06 15:25 51.58757 -0.17424 9235 ft 276 kts 12°
2026-05-06 15:25 51.60546 -0.16271 10012 ft 282 kts 33°
2026-05-06 15:25 51.61967 -0.14004 10522 ft 297 kts 49°
2026-05-06 15:25 51.63262 -0.11279 10867 ft 314 kts 51°
2026-05-06 15:26 51.64579 -0.08421 11172 ft 331 kts 51°
2026-05-06 15:26 51.65983 -0.05369 11571 ft 342 kts 51°
2026-05-06 15:26 51.67418 -0.02254 12185 ft 347 kts 51°
2026-05-06 15:26 51.68863 0.00876 12821 ft 351 kts 51°
2026-05-06 15:27 51.70311 0.04010 13444 ft 355 kts 51°
2026-05-06 15:27 51.71795 0.07218 14005 ft 359 kts 51°
2026-05-06 15:27 51.73297 0.10462 14560 ft 363 kts 51°
2026-05-06 15:27 51.74815 0.13738 15123 ft 366 kts 51°
2026-05-06 15:28 51.76347 0.17041 15670 ft 369 kts 51°
2026-05-06 15:28 51.77902 0.20389 16211 ft 373 kts 51°
2026-05-06 15:28 51.79458 0.23737 16757 ft 376 kts 51°
2026-05-06 15:28 51.81046 0.27154 17312 ft 380 kts 52°
2026-05-06 15:29 51.82382 0.30843 17859 ft 385 kts 69°
2026-05-06 15:29 51.82910 0.35099 18414 ft 389 kts 88°
2026-05-06 15:29 51.82898 0.39465 18884 ft 394 kts 91°
2026-05-06 15:29 51.82829 0.43927 19381 ft 397 kts 91°
2026-05-06 15:30 51.82757 0.48405 19906 ft 400 kts 91°
2026-05-06 15:30 51.82686 0.52915 20430 ft 403 kts 91°
2026-05-06 15:30 51.82717 0.57461 20928 ft 405 kts 82°
2026-05-06 15:30 51.83259 0.61945 21422 ft 408 kts 77°
2026-05-06 15:31 51.83892 0.66387 21906 ft 411 kts 76°
2026-05-06 15:31 51.84548 0.70917 22381 ft 413 kts 76°
2026-05-06 15:31 51.85205 0.75454 22862 ft 416 kts 76°
2026-05-06 15:32 51.86537 0.84609 23728 ft 422 kts 76°
2026-05-06 15:32 51.87220 0.89240 24114 ft 424 kts 74°
2026-05-06 15:32 51.88253 0.93721 24498 ft 425 kts 66°
2026-05-06 15:32 51.89388 0.98111 24863 ft 427 kts 66°
2026-05-06 15:33 51.90546 1.02591 25229 ft 429 kts 67°
2026-05-06 15:33 51.91688 1.07019 25579 ft 431 kts 67°
2026-05-06 15:33 51.92849 1.11529 25936 ft 433 kts 67°
2026-05-06 15:33 51.94009 1.16050 26282 ft 435 kts 67°
2026-05-06 15:34 51.95170 1.20589 26625 ft 437 kts 67°
2026-05-06 15:34 51.96335 1.25159 26949 ft 439 kts 67°
2026-05-06 15:34 51.97504 1.29753 27289 ft 441 kts 67°
2026-05-06 15:34 51.98668 1.34337 27611 ft 443 kts 67°
2026-05-06 15:35 51.99856 1.39026 27949 ft 446 kts 67°
2026-05-06 15:35 52.01027 1.43669 28274 ft 448 kts 68°
2026-05-06 15:35 52.02209 1.48359 28584 ft 450 kts 68°
2026-05-06 15:35 52.03387 1.53034 28894 ft 452 kts 68°
2026-05-06 15:36 52.04582 1.57770 29203 ft 454 kts 68°
2026-05-06 15:36 52.05775 1.62521 29501 ft 456 kts 68°
2026-05-06 15:36 52.06974 1.67313 29801 ft 458 kts 68°
2026-05-06 15:36 52.08166 1.72096 30192 ft 457 kts 68°
2026-05-06 15:37 52.09356 1.76879 30574 ft 455 kts 68°
2026-05-06 15:37 52.10541 1.81653 30952 ft 455 kts 68°
2026-05-06 15:37 52.11722 1.86418 31321 ft 454 kts 68°
2026-05-06 15:37 52.12902 1.91182 31677 ft 453 kts 68°
2026-05-06 15:38 52.14078 1.95937 32051 ft 452 kts 68°
2026-05-06 15:38 52.15254 2.00680 32430 ft 452 kts 68°
2026-05-06 15:38 52.16429 2.05432 32800 ft 451 kts 68°
2026-05-06 15:38 52.17594 2.10159 33176 ft 450 kts 68°
2026-05-06 15:39 52.18757 2.14890 33553 ft 449 kts 68°
2026-05-06 15:39 52.19913 2.19616 33918 ft 448 kts 68°
2026-05-06 15:39 52.21049 2.24275 34212 ft 447 kts 68°
2026-05-06 15:39 52.22197 2.29002 34467 ft 448 kts 68°
2026-05-06 15:40 52.23339 2.33727 34705 ft 448 kts 68°
2026-05-06 15:40 52.24482 2.38461 34900 ft 450 kts 68°
2026-05-06 15:40 52.26800 2.48064 34965 ft 458 kts 68°
2026-05-06 15:41 52.29138 2.57743 34964 ft 458 kts 68°
2026-05-06 15:41 52.31294 2.67532 34960 ft 458 kts 74°
2026-05-06 15:42 52.33056 2.77556 34957 ft 459 kts 74°
2026-05-06 15:42 52.34811 2.87562 34955 ft 459 kts 74°
2026-05-06 15:43 52.36567 2.97641 34957 ft 460 kts 74°
2026-05-06 15:43 52.38319 3.07712 34958 ft 460 kts 74°
2026-05-06 15:44 52.40065 3.17798 34954 ft 460 kts 74°
2026-05-06 15:44 52.42001 3.27804 34949 ft 461 kts 71°
2026-05-06 15:45 52.44082 3.37677 34946 ft 461 kts 71°
2026-05-06 15:45 52.46149 3.47653 34949 ft 461 kts 72°
2026-05-06 15:46 52.48156 3.57649 34939 ft 461 kts 72°
2026-05-06 15:46 52.50125 3.67618 34941 ft 462 kts 72°
2026-05-06 15:47 52.52101 3.77672 34942 ft 462 kts 72°
2026-05-06 15:47 52.54078 3.87719 34940 ft 462 kts 72°
2026-05-06 15:48 52.56052 3.97763 34938 ft 462 kts 72°
2026-05-06 15:48 52.58013 4.07812 34942 ft 461 kts 73°
2026-05-06 15:49 52.59961 4.17879 34937 ft 461 kts 73°
2026-05-06 15:49 52.61898 4.27935 34943 ft 460 kts 73°
2026-05-06 15:50 52.63822 4.37946 34938 ft 460 kts 73°
2026-05-06 15:50 52.65740 4.48000 34935 ft 460 kts 73°
2026-05-06 15:51 52.67654 4.58043 34937 ft 460 kts 73°
2026-05-06 15:51 52.69552 4.68106 34940 ft 460 kts 73°
2026-05-06 15:52 52.71439 4.78170 34941 ft 459 kts 74°
2026-05-06 15:52 52.73330 4.88285 34942 ft 460 kts 74°
2026-05-06 15:53 52.75202 4.98372 34935 ft 460 kts 74°
2026-05-06 15:53 52.77060 5.08425 34939 ft 460 kts 74°
2026-05-06 15:54 52.78619 5.16889 34927 ft 460 kts 74°
2026-05-06 15:54 52.80768 5.28641 34919 ft 460 kts 74°
2026-05-06 15:55 52.82309 5.37119 34914 ft 459 kts 75°
2026-05-06 15:55 52.84140 5.47244 34919 ft 459 kts 75°
2026-05-06 15:56 52.85941 5.57294 34916 ft 458 kts 75°
2026-05-06 15:56 52.87748 5.67408 34918 ft 458 kts 75°
2026-05-06 15:57 52.89559 5.77579 34919 ft 457 kts 75°
2026-05-06 15:57 52.91337 5.87619 34915 ft 457 kts 75°
2026-05-06 15:58 52.93119 5.97734 34916 ft 457 kts 75°
2026-05-06 15:58 52.94893 6.07856 34915 ft 457 kts 75°
2026-05-06 15:59 52.96656 6.17980 34916 ft 457 kts 75°
2026-05-06 15:59 52.98406 6.28111 34916 ft 457 kts 75°
2026-05-06 16:00 53.00148 6.38249 34920 ft 457 kts 75°
2026-05-06 16:00 53.01885 6.48394 34920 ft 456 kts 75°
2026-05-06 16:01 53.03609 6.58488 34920 ft 456 kts 76°
2026-05-06 16:01 53.05321 6.68629 34922 ft 456 kts 76°
2026-05-06 16:02 53.07026 6.78804 34916 ft 456 kts 76°
2026-05-06 16:02 53.08713 6.88910 34508 ft 452 kts 76°
2026-05-06 16:03 53.09557 6.93979 33961 ft 450 kts 76°
2026-05-06 16:03 53.10380 6.98949 33309 ft 448 kts 76°
2026-05-06 16:03 53.11209 7.03963 32786 ft 444 kts 76°
2026-05-06 16:03 53.12015 7.08850 32282 ft 440 kts 76°
2026-05-06 16:04 53.12821 7.13753 31770 ft 436 kts 76°
2026-05-06 16:04 53.13620 7.18608 31257 ft 432 kts 76°
2026-05-06 16:04 53.14474 7.23388 30767 ft 428 kts 74°
2026-05-06 16:04 53.15385 7.28083 30125 ft 422 kts 73°
2026-05-06 16:05 53.16320 7.32697 29406 ft 420 kts 72°
2026-05-06 16:05 53.17260 7.37278 28904 ft 416 kts 72°
2026-05-06 16:05 53.18173 7.41773 28362 ft 414 kts 73°
2026-05-06 16:05 53.19087 7.46353 27856 ft 411 kts 73°
2026-05-06 16:06 53.19966 7.50851 27366 ft 408 kts 73°
2026-05-06 16:06 53.20827 7.55325 26890 ft 406 kts 73°
2026-05-06 16:06 53.21677 7.59770 26443 ft 403 kts 73°
2026-05-06 16:06 53.22532 7.64250 26003 ft 401 kts 73°
2026-05-06 16:07 53.23381 7.68674 25578 ft 399 kts 73°
2026-05-06 16:07 53.24227 7.73076 25173 ft 397 kts 72°
2026-05-06 16:07 53.25057 7.77410 24772 ft 394 kts 72°
2026-05-06 16:07 53.25888 7.81761 24372 ft 392 kts 72°
2026-05-06 16:08 53.26715 7.86104 23964 ft 390 kts 72°
2026-05-06 16:08 53.27536 7.90428 23559 ft 388 kts 72°
2026-05-06 16:08 53.28348 7.94714 23089 ft 386 kts 72°
2026-05-06 16:08 53.29153 7.98967 22631 ft 383 kts 72°
2026-05-06 16:09 53.29944 8.03139 22178 ft 380 kts 72°
2026-05-06 16:09 53.30736 8.07337 21726 ft 377 kts 72°
2026-05-06 16:09 53.31522 8.11526 21262 ft 374 kts 73°
2026-05-06 16:09 53.32294 8.15647 20814 ft 371 kts 73°
2026-05-06 16:10 53.33100 8.19756 20363 ft 369 kts 71°
2026-05-06 16:10 53.33974 8.23718 19944 ft 366 kts 69°
2026-05-06 16:10 53.34906 8.27674 19530 ft 364 kts 68°
2026-05-06 16:10 53.35851 8.31592 19126 ft 361 kts 68°
2026-05-06 16:11 53.36795 8.35530 18698 ft 359 kts 69°
2026-05-06 16:11 53.37696 8.39355 18308 ft 357 kts 69°
2026-05-06 16:11 53.38592 8.43219 17866 ft 354 kts 69°
2026-05-06 16:11 53.39459 8.47060 17413 ft 351 kts 73°
2026-05-06 16:12 53.39991 8.51015 16962 ft 347 kts 84°
2026-05-06 16:12 53.40061 8.55028 16545 ft 343 kts 95°
2026-05-06 16:12 53.39841 8.58992 16131 ft 340 kts 96°
2026-05-06 16:12 53.39626 8.62925 15711 ft 338 kts 96°
2026-05-06 16:13 53.39418 8.66838 15300 ft 335 kts 96°
2026-05-06 16:13 53.39214 8.70704 14896 ft 332 kts 96°
2026-05-06 16:13 53.39008 8.74559 14501 ft 329 kts 95°
2026-05-06 16:13 53.38801 8.78367 14112 ft 327 kts 95°
2026-05-06 16:14 53.38593 8.82144 13724 ft 324 kts 95°
2026-05-06 16:14 53.38385 8.85891 13300 ft 321 kts 95°
2026-05-06 16:14 53.38181 8.89583 12864 ft 319 kts 95°
2026-05-06 16:14 53.37974 8.93280 12431 ft 317 kts 95°
2026-05-06 16:15 53.37768 8.96943 12007 ft 315 kts 95°
2026-05-06 16:15 53.37563 9.00592 11588 ft 314 kts 95°
2026-05-06 16:15 53.37359 9.04224 11189 ft 312 kts 95°
2026-05-06 16:15 53.37156 9.07798 10805 ft 310 kts 95°
2026-05-06 16:16 53.36951 9.11381 10421 ft 308 kts 95°
2026-05-06 16:16 53.36747 9.14935 10045 ft 306 kts 95°
2026-05-06 16:16 53.36543 9.18465 9792 ft 300 kts 95°
2026-05-06 16:16 53.36345 9.21888 9662 ft 290 kts 95°
2026-05-06 16:17 53.36152 9.25214 9376 ft 285 kts 95°
2026-05-06 16:17 53.35962 9.28464 9033 ft 283 kts 95°
2026-05-06 16:17 53.35765 9.31748 8708 ft 280 kts 95°
2026-05-06 16:17 53.35571 9.34954 8400 ft 278 kts 95°
2026-05-06 16:18 53.35381 9.38164 8105 ft 276 kts 94°
2026-05-06 16:18 53.35470 9.41346 7803 ft 273 kts 78°
2026-05-06 16:18 53.36075 9.44354 7479 ft 270 kts 62°
2026-05-06 16:18 53.37126 9.46938 7157 ft 268 kts 49°
2026-05-06 16:19 53.38323 9.49276 6846 ft 267 kts 50°
2026-05-06 16:19 53.39518 9.51635 6500 ft 263 kts 50°
2026-05-06 16:19 53.40693 9.53972 5839 ft 264 kts 50°
2026-05-06 16:19 53.41847 9.56273 5575 ft 249 kts 50°
2026-05-06 16:20 53.42921 9.58416 5394 ft 233 kts 50°
2026-05-06 16:20 53.43951 9.60470 5183 ft 226 kts 50°
2026-05-06 16:20 53.44965 9.62496 5035 ft 225 kts 51°
2026-05-06 16:20 53.45962 9.64489 4784 ft 222 kts 50°
2026-05-06 16:21 53.46954 9.66472 4496 ft 220 kts 50°
2026-05-06 16:21 53.47930 9.68423 4220 ft 216 kts 50°
2026-05-06 16:21 53.48878 9.70319 3942 ft 213 kts 50°
2026-05-06 16:21 53.49832 9.72230 3665 ft 209 kts 50°
2026-05-06 16:22 53.50756 9.74083 3400 ft 205 kts 50°
2026-05-06 16:22 53.51635 9.75860 3243 ft 196 kts 50°
2026-05-06 16:22 53.52494 9.77589 3015 ft 189 kts 50°
2026-05-06 16:22 53.53331 9.79271 2863 ft 191 kts 50°
2026-05-06 16:23 53.54263 9.81145 3014 ft 218 kts 51°
2026-05-06 16:23 53.55217 9.83101 2796 ft 211 kts 50°
2026-05-06 16:23 53.56149 9.84977 3068 ft 214 kts 50°
2026-05-06 16:23 53.57093 9.86863 3752 ft 208 kts 50°
2026-05-06 16:24 53.58017 9.88711 3952 ft 209 kts 50°
2026-05-06 16:24 53.58953 9.90591 4001 ft 209 kts 50°
2026-05-06 16:24 53.59893 9.92480 4006 ft 209 kts 50°
2026-05-06 16:24 53.60823 9.94355 4007 ft 209 kts 50°
2026-05-06 16:25 53.61753 9.96230 4006 ft 209 kts 50°
2026-05-06 16:25 53.62690 9.98126 4007 ft 210 kts 50°
2026-05-06 16:25 53.63613 10.00008 4006 ft 209 kts 51°
2026-05-06 16:25 53.64538 10.01901 4008 ft 210 kts 50°
2026-05-06 16:26 53.65466 10.03799 4007 ft 209 kts 51°
2026-05-06 16:26 53.66391 10.05694 4006 ft 209 kts 51°
2026-05-06 16:26 53.67319 10.07593 4007 ft 210 kts 51°
2026-05-06 16:26 53.68236 10.09499 4003 ft 210 kts 56°
2026-05-06 16:27 53.68842 10.11714 4005 ft 210 kts 77°
2026-05-06 16:27 53.68921 10.14177 4007 ft 212 kts 95°
2026-05-06 16:27 53.68766 10.16664 4010 ft 213 kts 94°
2026-05-06 16:27 53.68624 10.19141 4006 ft 212 kts 94°
2026-05-06 16:28 53.68219 10.21522 4002 ft 215 kts 122°
2026-05-06 16:28 53.67091 10.23145 4005 ft 222 kts 156°
2026-05-06 16:28 53.65548 10.23440 4006 ft 228 kts 191°
2026-05-06 16:28 53.64132 10.22247 4010 ft 232 kts 220°
2026-05-06 16:29 53.62911 10.20231 4005 ft 253 kts 226°
2026-05-06 16:29 53.61728 10.18064 4006 ft 254 kts 227°
2026-05-06 16:29 53.60542 10.15855 4008 ft 253 kts 227°
2026-05-06 16:29 53.59359 10.13645 4004 ft 254 kts 227°
2026-05-06 16:30 53.58169 10.11439 4006 ft 254 kts 227°
2026-05-06 16:30 53.57373 10.09966 4008 ft 255 kts 227°
2026-05-06 16:30 53.55793 10.07036 4007 ft 255 kts 227°
2026-05-06 16:30 53.54606 10.04829 4007 ft 255 kts 227°
2026-05-06 16:31 53.53416 10.02619 4006 ft 255 kts 227°
2026-05-06 16:31 53.52226 10.00417 4007 ft 254 kts 227°
2026-05-06 16:31 53.51038 9.98212 4007 ft 255 kts 227°
2026-05-06 16:31 53.49851 9.96011 4010 ft 255 kts 227°
2026-05-06 16:32 53.48671 9.93817 4006 ft 254 kts 227°
2026-05-06 16:32 53.47481 9.91607 4008 ft 254 kts 227°
2026-05-06 16:32 53.46297 9.89417 4005 ft 250 kts 227°
2026-05-06 16:32 53.45155 9.87304 4008 ft 243 kts 227°
2026-05-06 16:33 53.44022 9.85210 4005 ft 244 kts 227°
2026-05-06 16:33 53.42890 9.83122 4006 ft 244 kts 227°
2026-05-06 16:33 53.41738 9.81004 4008 ft 243 kts 227°
2026-05-06 16:34 53.39451 9.76812 4006 ft 244 kts 227°
2026-05-06 16:34 53.38312 9.74723 4005 ft 244 kts 227°
2026-05-06 16:34 53.37171 9.72627 4003 ft 244 kts 227°
2026-05-06 16:34 53.36029 9.70525 4005 ft 244 kts 227°
2026-05-06 16:35 53.34878 9.68410 4004 ft 244 kts 227°
2026-05-06 16:35 53.33981 9.66088 3999 ft 242 kts 254°
2026-05-06 16:35 53.33895 9.63328 4001 ft 239 kts 287°
2026-05-06 16:35 53.34679 9.60946 4001 ft 233 kts 320°
2026-05-06 16:36 53.35993 9.59391 4005 ft 231 kts 334°
2026-05-06 16:36 53.37476 9.58418 4005 ft 228 kts 349°
2026-05-06 16:36 53.39034 9.57945 4005 ft 228 kts 353°
2026-05-06 16:36 53.40604 9.57653 4002 ft 226 kts
2026-05-06 16:37 53.42128 9.58158 4004 ft 224 kts 24°
2026-05-06 16:37 53.43429 9.59548 4002 ft 222 kts 45°
2026-05-06 16:37 53.44442 9.61505 4009 ft 222 kts 50°
2026-05-06 16:37 53.45440 9.63494 4006 ft 221 kts 50°
2026-05-06 16:38 53.46385 9.65375 4001 ft 207 kts 50°
2026-05-06 16:38 53.47324 9.67249 4004 ft 211 kts 50°
2026-05-06 16:38 53.48268 9.69135 4006 ft 210 kts 50°
2026-05-06 16:38 53.49191 9.70980 3932 ft 202 kts 50°
2026-05-06 16:39 53.50085 9.72768 3720 ft 197 kts 50°
2026-05-06 16:39 53.50958 9.74517 3473 ft 195 kts 50°
2026-05-06 16:39 53.51825 9.76252 3222 ft 192 kts 50°
2026-05-06 16:39 53.52670 9.77945 2967 ft 186 kts 50°
2026-05-06 16:40 53.53477 9.79565 2716 ft 176 kts 50°
2026-05-06 16:40 53.54252 9.81119 2477 ft 169 kts 50°
2026-05-06 16:40 53.54980 9.82582 2256 ft 157 kts 50°
2026-05-06 16:40 53.55642 9.83912 2047 ft 139 kts 50°
2026-05-06 16:41 53.56246 9.85127 1867 ft 136 kts 51°
2026-05-06 16:41 53.56851 9.86344 1678 ft 135 kts 50°
2026-05-06 16:41 53.57444 9.87537 1494 ft 135 kts 51°
2026-05-06 16:41 53.58044 9.88745 1309 ft 134 kts 51°
2026-05-06 16:42 53.58643 9.89951 1117 ft 134 kts 50°
2026-05-06 16:42 53.59242 9.91158 934 ft 134 kts 50°
2026-05-06 16:42 53.59641 9.91963 802 ft 135 kts 50°
2026-05-06 16:42 53.60242 9.93176 631 ft 135 kts 50°
2026-05-06 16:43 53.60842 9.94386 434 ft 135 kts 51°
2026-05-06 16:43 53.61443 9.95598 249 ft 135 kts 50°
2026-05-06 16:43 53.62037 9.96800 73 ft 133 kts 50°
2026-05-06 16:43 53.62596 9.97926 42 ft 112 kts 50°
2026-05-06 16:44 53.62990 9.98726 45 ft 71 kts 50°
2026-05-06 16:44 53.63250 9.99253 47 ft 37 kts 51°
2026-05-06 16:44 53.63289 9.99533 47 ft 16 kts 98°
2026-05-06 16:44 53.63277 9.99671 49 ft 0 kts 101°
2026-05-06 16:46 53.63276 9.99677 49 ft 2 kts 101°
2026-05-06 16:46 53.63271 9.99716 49 ft 5 kts 101°
2026-05-06 16:46 53.63252 9.99740 49 ft 4 kts 161°
2026-05-06 16:46 53.63212 9.99768 46 ft 9 kts 154°
2026-05-06 16:47 53.63142 9.99830 49 ft 14 kts 153°
2026-05-06 16:47 53.63045 9.99915 49 ft 16 kts 152°
2026-05-06 16:47 53.62987 9.99965 47 ft 0 kts 152°
2026-05-06 16:49 53.62986 9.99966 48 ft 0 kts 152°
2026-05-06 16:49 53.62980 9.99971 49 ft 2 kts 152°
2026-05-06 16:49 53.62956 9.99992 49 ft 6 kts 153°
2026-05-06 16:50 53.62911 10.00034 49 ft 9 kts 142°
2026-05-06 16:50 53.62927 10.00110 48 ft 4 kts 33°
2026-05-06 16:50 53.62945 10.00132 49 ft 3 kts 45°
2026-05-06 16:50 53.62947 10.00174 49 ft 5 kts 94°
2026-05-06 16:51 53.62934 10.00249 48 ft 5 kts 109°
2026-05-06 16:51 53.62933 10.00254 49 ft 0 kts 107°
2026-05-06 16:51 53.62932 10.00260 49 ft 2 kts 106°
2026-05-06 16:51 53.62927 10.00290 49 ft 3 kts 108°
2026-05-06 16:52 53.62926 10.00291 49 ft 0 kts 108°